Regional Weather Roundup
Issued by NWS Bismarck, ND

Home | Current Version | Previous Version | Text Only | Print | Product List | Glossary On
Versions: 1 2 3 4 5 6 7 8 9 10 11 12 13 14 15 16 17 18 19 20 21 22 23 24 25 26 27 28 29 30 31 32 33 34 35 36 37 38 39 40 41 42 43 44 45 46 47 48 49 50
000
ASUS43 KBIS 242210
RWRBIS

NWR BROADCAST TEXT
NATIONAL WEATHER SERVICE BISMARCK ND
500 PM CDT MON JUL 24 2017

NOTE: "FAIR" INDICATES FEW OR NO CLOUDS BELOW 12,000 FEET WITH NO
SIGNIFICANT WEATHER AND/OR OBSTRUCTIONS TO VISIBILITY.


CITY           SKY/WX    TMP DP  RH WIND       PRES   REMARKS
WILLISTON      MOSUNNY   92  56  29 N18       29.77R HX  90
MINOT          SUNNY     97  56  25 S15G25    29.72F HX  95
MINOT AFB      MOSUNNY   96  57  27 S14G23    29.70F HX  94
BISMARCK       SUNNY     90  64  42 SE20G28   29.80F HX  91
DICKINSON      SUNNY     96  55  25 S10       29.76F HX  94
GARRISON         N/A     93  63  36 S17G24    29.75S HX  94
HETTINGER ARPT SUNNY     94  53  25 CALM      29.82S HX  91
JAMESTOWN      PTSUNNY   83  63  50 SE17      29.87F
HAZEN            N/A     95  57  28 S22       29.76F HX  94
LINTON           N/A    N/A N/A N/A SE18      29.84F
STANLEY        FAIR      91  57  31 N20       29.77S HX  90
TIOGA          FAIR      86  55  35 N21       29.79R
WATFORD CITY   FAIR      97  52  21 NW15      29.73R HX  94
$$

CITY           SKY/WX    TMP DP  RH WIND       PRES   REMARKS
GRAND FORKS    PTSUNNY   82  65  56 S16       29.87F
GRAND FORKS AF MOSUNNY   80  64  57 S21       29.87F
DEVILS LAKE    SUNNY     81  65  58 S22G30    29.83F
FARGO          CLOUDY    77  63  61 SE18G31   29.90F
CAVALIER       FAIR      79  64  61 S21G31    29.83S
GRAFTON        FAIR      81  64  57 S20G26    29.87F
GWINNER        CLEAR     75  64  69 SE16      29.86F
LANGDON        FAIR      81  68  65 S17G26    29.84S
ROLLA            N/A     81  66  61 S17       29.81F
$$

CITY           SKY/WX    TMP DP  RH WIND       PRES   REMARKS
ABERDEEN       LGT RAIN  74  69  85 SE8       29.88F
MOBRIDGE       MOSUNNY   86  68  54 SE20      29.79F
BUFFALO          N/A     97  53  22 S8        29.75F HX  94
RAPID CITY     SUNNY     98  48  18 E12       29.82F HX  94
GLASGOW        PTSUNNY   84  42  22 W16       29.85S
SIDNEY         MOSUNNY   92  55  28 N15G21    29.78R HX  90
WOLF POINT     PTSUNNY   92  44  19 NW15G22   29.81S
GLENDIVE       SUNNY     92  52  25 N18G25    29.81S
MILES CITY     SUNNY     94  46  19 N16G23    29.83F HX  90
BAKER          SUNNY     97  44  16 NW15G23   29.82R HX  93
$$

CITY           SKY/WX    TMP DP  RH WIND       PRES   REMARKS
BILLINGS       MOSUNNY   93  40  15 NE8       29.88F
GREAT FALLS    SUNNY     85  45  24 NE7       29.88F
REGINA         MOSUNNY   77  45  31 NW23G30   29.81S
ESTEVAN        MOSUNNY   82  55  39 NW17      29.79R
$$





USA.gov is the U.S. government's official web portal to all federal, state and local government web resources and services.